Location: ????
(55.5675°N, 37.6272°E)
Time: 16:12:59
(UTC+00:00)

Daily predictions for brighter satellites

Satellite Brightness Start Highest point End
(mag) Time Altitude Azimuth Time Altitude Azimuth Time Altitude Azimuth
Feng Yun 1-1 Rocket 4.3 17:03:15 10° SSE 17:08:47 75° ENE 17:14:14 10° NNW
CSL-04 Rocket 4.0 17:03:27 10° SSE 17:09:00 79° WSW 17:14:36 10° NNW
Cosmos 372 Rocket 4.2 17:04:59 10° SSW 17:10:13 81° WNW 17:15:30 10° NNE
Cosmos 2074 Rocket 4.2 17:05:54 10° SSW 17:12:09 83° WNW 17:18:28 10° N
NOSS 2-3 (C) 4.4 17:07:35 10° NW 17:12:14 66° SW 17:18:39 10° SE
Cosmos 1898 Rocket 3.5 17:08:50 10° SSW 17:14:05 87° ESE 17:19:19 10° NNE
COBE Rocket 4.2 17:09:10 10° NNE 17:14:07 78° WNW 17:19:10 10° SSW
MOS 1 4.3 17:08:39 10° SSE 17:14:16 74° ENE 17:19:57 10° NNW
NOSS 2-1 (E) 4.0 17:11:35 10° NW 17:14:25 32° NNE 17:17:36 10° E
Cosmos 2278 Rocket 2.3 17:11:12 10° NNW 17:16:55 70° NE 17:22:34 10° SE
NOSS 2-1 (C) 3.8 17:14:20 10° NW 17:17:10 35° NNE 17:20:26 10° E
NOSS 2-1 (D) 3.7 17:14:53 10° NW 17:17:46 38° NNE 17:21:07 10° E
CZ-4B R/B 3.3 17:13:17 10° SSE 17:18:49 70° ENE 17:24:27 10° NNW
CZ-4B DEB 4.3 17:13:39 10° SSE 17:19:08 90° ENE 17:24:41 10° NNW
COSMOS 2428 3.3 17:14:33 10° S 17:19:42 36° ESE 17:24:52 10° NE
USA 234 3.5 17:13:59 10° ENE 17:20:16 47° SE 17:26:32 10° SW
SL-8 Rocket 4.3 17:15:55 10° SSE 17:21:48 46° E 17:27:46 10° NNE
BREEZE-M DEB (TANK) 3.7 17:20:21 10° SSW 17:22:10 19° SSE 17:24:47 10° ESE
Cosmos 1703 Rocket 4.1 17:18:44 10° NNW 17:23:01 60° W 17:27:14 10° S
BREEZE-M DEB (TANK) 3.2 17:21:10 10° SW 17:23:06 23° S 17:25:13 10° ESE
Cosmos 1680 Rocket 4.1 17:20:07 10° NNW 17:25:16 60° WSW 17:30:21 10° S
Cosmos 1378 Rocket 4.5 17:22:41 10° N 17:26:41 32° ENE 17:30:36 10° SE
USA 238 DEB 4.0 17:19:31 10° NW 17:26:42 86° NE 17:34:38 10° SE
USA 238 4.0 17:19:41 10° NW 17:26:52 85° NE 17:34:48 10° SE
Cosmos 1943 Rocket 2.3 17:22:56 10° NW 17:28:40 89° SW 17:34:20 10° SSE
ADEOS 3.6 17:24:21 10° SSE 17:29:33 78° ENE 17:34:47 10° NNW
Cosmos 1470 Rocket 4.1 17:25:18 10° SSW 17:29:39 64° WNW 17:33:59 10° N
Cosmos 1937 Rocket 3.6 17:25:30 10° SSW 17:30:48 89° ESE 17:36:08 10° NNE
PAYLOAD B 4.3 17:25:26 10° SSE 17:30:56 85° WSW 17:36:29 10° NNW
Cosmos 2333 Rocket 3.4 17:27:15 10° WSW 17:32:43 47° NW 17:38:11 10° NNE
IRS-1A Rocket 4.3 17:27:39 10° SSE 17:33:11 70° ENE 17:38:53 10° NNW
Cosmos 2366 rocket 4.2 17:27:54 10° SSE 17:33:46 49° E 17:39:39 10° NNE
Cosmos 1933 Rocket 3.5 17:32:39 10° S 17:37:01 78° E 17:41:27 10° NNE
Cosmos 2327 Rocket 4.5 17:30:54 10° S 17:37:03 71° E 17:43:20 10° NNE
COSMOS 2455 4.5 17:33:15 10° NW 17:38:25 28° N 17:43:34 10° ENE
Terra 1.9 17:37:36 10° SSE 17:42:18 84° WSW 17:47:02 10° NNW
In-Cosmos 22 Rocket 4.3 17:38:45 10° NNW 17:44:07 75° W 17:49:24 10° S
Aureole 3 3.9 17:43:48 10° N 17:47:53 53° ENE 17:52:30 12° SSE
Cosmos 1733 Rocket 3.8 17:44:06 10° SSE 17:48:01 34° E 17:52:00 10° NNE
SPOT 3 Rocket 4.2 17:44:39 13° SE 17:48:59 42° ENE 17:53:51 10° N
SKYMED 3 4.3 17:48:35 10° NNE 17:52:26 57° ESE 17:56:15 10° S
Helios 1A Rocket 2.6 17:49:42 10° NNE 17:52:57 71° WNW 17:56:08 10° SSW
Ariane Rocket 3.8 17:49:33 14° ESE 17:53:23 37° ENE 17:57:59 10° N
Geosat 4.1 17:49:56 10° NE 17:54:53 56° ESE 17:59:47 10° SSW
SL-08 R/B 3.5 17:50:35 10° NNE 17:55:24 55° ESE 18:00:13 10° S
Lacrosse 5 rocket 0.7 17:54:33 10° SW 17:57:41 54° SSE 18:00:48 10° ENE
ERS-1 Rocket 3.5 17:53:35 10° S 17:58:31 58° W 18:03:29 10° NNW
Cosmos 614 Rocket 4.0 17:53:52 10° NNW 17:59:05 70° ENE 18:03:13 16° SE
Cosmos 2360 Rocket 3.5 17:54:46 10° WSW 18:00:10 45° NW 18:05:38 10° NNE
Spot 2 Rocket 3.5 17:56:25 10° SSE 18:01:27 84° ENE 18:06:30 10° NNW
Meteor 2-21 4.4 17:56:06 10° N 18:02:16 77° ENE 18:08:22 10° SSE
Cosmos 2218 Rocket 3.9 17:57:18 10° S 18:03:23 70° E 18:09:31 10° NNE
Meteor 1-11 4.2 17:58:58 10° NNW 18:04:34 79° ENE 18:09:39 12° SSE
Cosmos 1025 Rocket 3.5 18:01:52 10° N 18:05:54 42° ENE 18:08:31 20° SE
Cosmos 1869 Rocket 3.7 18:02:44 10° SSW 18:07:07 78° WNW 18:11:35 10° N
SeaSat 1 3.6 18:03:22 12° E 18:07:13 32° NE 18:11:33 10° NNW
ATLAS 3B R/B 3.7 18:00:17 10° WSW 18:08:00 59° NNW 18:15:48 10° NE
ATLAS 5 CENTAUR R/B 3.1 18:05:26 10° WNW 18:08:12 24° N 18:11:21 10° NE
Okean-O 2.6 18:05:33 12° SSE 18:09:35 88° W 18:14:00 10° NNW
Cosmos 2322 Rocket 3.8 18:05:09 10° WSW 18:10:24 39° NW 18:15:40 10° NNE
NOSS 3-4 (A) 3.7 18:07:22 10° S 18:12:07 34° ESE 18:17:20 10° ENE
Cosmos 1821 Rocket 4.1 18:06:19 10° S 18:12:27 62° E 18:18:43 10° NNE
NOSS 3-4 (C) 3.7 18:07:52 10° S 18:12:38 34° ESE 18:17:52 10° ENE
USA 186 1.3 18:15:49 27° S 18:16:44 54° WSW 18:18:56 10° NNW
CZ-4B R/B 3.5 18:13:47 19° SE 18:17:10 61° ENE 18:21:53 10° NNW
USA 32 4.0 18:12:11 10° S 18:17:24 78° E 18:22:40 10° N
NOSS 3-1 (C) 4.1 18:13:06 10° NW 18:19:13 59° NNE 18:26:02 14° ESE
Cosmos 1400 Rocket 3.0 18:18:06 23° SSE 18:19:56 41° E 18:23:22 10° NNE
CZ-4 R/B 3.7 18:17:21 10° SW 18:20:12 20° W 18:23:03 10° NW
CZ-4B R/B 2.5 18:18:47 24° SSE 18:20:46 65° ENE 18:24:13 10° N
SL-16 R/B 4.4 18:16:05 10° W 18:20:54 27° NNW 18:25:43 10° NNE
Helios 1B rocket 4.3 18:19:53 12° ENE 18:21:11 14° NE 18:22:59 10° NNE
Cosmos 2237 Rocket 2.5 18:17:20 10° S 18:22:42 45° ESE 18:28:06 10° NE
Cosmos 1980 3.9 18:18:25 10° S 18:23:48 48° ESE 18:29:13 10° NE
ASTEX 1 3.3 18:21:31 16° SSE 18:25:24 76° E 18:30:21 10° N
ARIANE 6 FM1 Upper Stage 3.6 18:21:46 10° W 18:25:44 48° NNW 18:29:39 10° NE
CZ-2C R/B 2.4 18:25:11 34° ESE 18:26:03 48° ENE 18:28:52 10° N
Cosmos 1000 Rocket 4.5 18:22:30 10° N 18:28:43 72° ENE 18:33:14 19° SSE
Okean O Rocket 2.1 18:25:01 12° S 18:28:55 58° WSW 18:33:13 10° NNW
Cosmos 2297 4.4 18:24:03 10° NNW 18:29:34 44° NE 18:33:21 19° ESE
Cosmos 2242 Rocket 4.0 18:25:20 10° NNW 18:29:48 63° W 18:33:39 13° S
USA 245 3.7 18:28:00 21° SSE 18:30:49 87° ENE 18:35:57 10° NNW
Cosmos 2322 3.8 18:25:29 10° SW 18:31:13 80° NW 18:36:59 10° NNE
Cosmos 1602 3.6 18:30:23 10° N 18:32:23 31° ENE 18:32:23 31° ENE
Cosmos 2219 Rocket 3.6 18:29:22 10° WSW 18:34:39 41° NW 18:39:58 10° NNE
Meteor 2-21 Rocket 4.4 18:30:37 10° NNW 18:36:46 88° WSW 18:41:36 17° S
USA 59 Rocket -0.2 18:33:45 10° WNW 18:36:53 55° SW 18:38:24 30° SSE
Cosmos 1346 Rocket 2.5 18:34:16 10° NNW 18:37:54 75° ENE 18:39:22 34° SSE
RESURS DK-1 3.1 18:42:09 29° ESE 18:42:09 29° ESE 18:45:26 10° NE
NOSS 0 Rocket 3.9 18:38:02 10° SSW 18:44:17 80° ESE 18:50:32 10° NE
Cosmos 1674 Rocket 3.6 18:42:20 10° NNW 18:46:39 76° W 18:49:09 24° S
Cosmos 2369 Rocket 2.4 18:44:33 10° NNW 18:50:06 59° NE 18:53:07 27° ESE
Cosmos 1908 Rocket 3.9 18:51:54 34° SE 18:53:13 46° E 18:57:22 10° NNE
Dummy Sat-02 4.5 18:53:00 32° S 18:54:35 89° W 18:58:13 10° N
Cosmos 405 Rocket 3.1 18:55:37 10° N 18:58:14 31° ENE 18:58:14 31° ENE
Cosmos 1125 Rocket 3.4 18:55:00 13° SSW 18:59:35 67° ESE 19:04:50 10° NNE
Cosmos 2278 Rocket 3.7 18:55:45 10° NW 19:00:35 29° WSW 19:05:01 12° SSW
Cosmos 1656 Rocket 3.7 18:56:29 10° NW 19:01:55 72° WSW 19:04:39 30° SSE
Cosmos 1782 Rocket 4.4 19:01:51 31° ESE 19:02:15 31° E 19:06:05 10° NNE
SJ 16-02 3.6 19:00:27 10° N 19:03:01 15° NE 19:05:32 10° ENE
NOSS 2-1 (E) 3.4 19:00:08 10° WNW 19:03:15 49° SW 19:03:59 41° S
COSMOS 2428 3.3 18:58:03 10° SW 19:03:43 60° NW 19:09:25 10° NNE
USA 234 3.2 18:57:09 10° ENE 19:03:45 86° SSE 19:10:20 10° WSW
IRS-1C Rocket 4.2 19:01:19 25° S 19:04:25 72° WSW 19:09:44 10° NNW
NOSS 2-1 (C) 3.7 19:02:55 10° WNW 19:05:59 42° SW 19:06:39 37° SSW
NOSS 2-1 (D) 3.9 19:03:22 10° WNW 19:06:24 37° SW 19:07:06 34° SSW
SL-08 R/B 4.4 19:02:36 22° S 19:06:38 72° E 19:12:45 10° NNE
Cosmos 1943 Rocket 4.2 19:07:32 10° NW 19:11:40 21° W 19:15:47 10° SSW
Meteor 2-8 Rocket 4.4 19:07:23 16° S 19:12:18 89° W 19:18:25 10° NNE
NOSS 3-1 (A) 4.2 19:06:23 10° NW 19:12:35 59° NNE 19:18:50 17° ESE
DNEPR-1 R/B 3.4 19:09:57 10° SW 19:14:09 86° SE 19:18:45 10° NE
Cosmos 2221 Rocket 3.7 19:10:17 10° NNW 19:14:40 68° W 19:16:28 34° S
Cosmos 921 Rocket 4.1 19:15:25 10° NNW 19:19:33 35° NE 19:20:52 29° E
Terra 4.4 19:17:52 10° WSW 19:20:34 15° W 19:23:17 10° NW
COSMOS 2455 3.6 19:19:50 10° NW 19:25:41 48° NNE 19:29:24 22° E
Cosmos 2150 Rocket 4.3 19:28:19 42° SE 19:29:07 45° ESE 19:34:03 10° NE
Ariane Rocket 3.7 19:29:37 25° SSW 19:32:12 46° W 19:37:03 10° NNW
SL-16 R/B 2.5 19:31:41 40° SE 19:32:50 45° ESE 19:38:14 10° NE
SWAS 4.4 19:29:44 10° NNW 19:33:47 65° NE 19:34:27 54° E
Lacrosse 5 rocket 0.9 19:31:07 10° W 19:34:18 68° N 19:34:18 68° N
Cosmos 2058 3.0 19:32:19 10° N 19:36:13 53° ENE 19:36:28 52° E
Cosmos 44 4.5 19:37:56 29° E 19:37:56 29° E 19:41:32 10° ENE
Cosmos 2346 Rocket 4.4 19:32:35 10° N 19:38:44 75° ENE 19:41:07 39° SSE
Cosmos 1315 Rocket 3.5 19:40:41 38° ENE 19:40:41 38° ENE 19:43:40 10° NNE
Cosmos 1300 Rocket 3.3 19:42:33 60° S 19:43:18 84° ESE 19:47:37 10° NNE
TSX-5 4.2 19:38:36 10° SW 19:43:22 72° NW 19:47:20 10° NE
SeaSat 1 2.4 19:42:58 48° SSE 19:44:18 74° WSW 19:49:14 10° NW
Helios 1A 3.1 19:40:48 10° NNE 19:44:31 51° E 19:44:31 51° E
Cosmos 1934 Rocket 4.0 19:42:07 27° SSW 19:45:49 82° W 19:52:06 10° N
Cosmos 1447 Rocket 4.5 19:43:30 10° N 19:49:52 78° ENE 19:52:09 42° SSE
ATLAS 5 CENTAUR R/B 2.6 19:47:42 10° NW 19:51:04 35° NNE 19:53:07 22° ENE
Cosmos 2084 Rocket 3.2 19:50:04 45° SW 19:51:17 87° SE 19:55:27 10° NE
Cosmos 1869 3.1 19:53:24 68° W 19:53:28 68° WNW 19:57:02 10° N
Helios 1B rocket 2.0 19:53:53 79° NW 19:53:53 79° NW 19:57:13 10° NNW
Cosmos 371 Rocket 4.1 19:50:57 10° NNW 19:55:34 43° NE 19:56:56 34° E
Cosmos 407 Rocket 3.9 19:51:25 10° NNW 19:56:31 54° NE 19:57:57 40° ESE
ATLAS 3B R/B 4.0 19:52:33 10° WNW 20:00:08 47° N 20:07:36 10° ENE
NOSS 3-4 (A) 3.4 19:57:04 10° WSW 20:02:30 73° NNW 20:08:44 10° NE
NOSS 3-4 (C) 3.4 19:57:33 10° WSW 20:03:00 74° NNW 20:09:16 10° NE
Cosmos 1140 Rocket 3.4 19:57:59 10° NNW 20:03:10 82° WSW 20:04:15 57° SSE
ARIANE 6 FM1 Upper Stage 4.3 20:01:43 10° WNW 20:05:24 32° N 20:09:01 10° ENE
Cosmos 2237 Rocket 3.1 20:01:15 10° WSW 20:06:46 49° NW 20:12:20 10° NNE
NOSS 3-1 (C) 4.0 20:03:40 10° NW 20:10:18 65° SW 20:13:20 40° SSE
Cosmos 1975 Rocket 3.4 20:07:30 10° NNW 20:11:52 55° W 20:12:31 49° SW
Cosmos 2285 Rocket 3.9 20:10:28 33° SSW 20:13:37 89° ESE 20:20:00 10° NNE
Cosmos 2297 4.1 20:08:19 10° NW 20:13:53 52° WSW 20:15:15 42° SSW
Cosmos 1535 Rocket 4.4 20:12:13 38° SSW 20:14:44 80° WNW 20:20:55 10° N
Cosmos 1356 Rocket 3.4 20:15:18 66° ENE 20:15:18 66° ENE 20:19:01 10° NNE
ALOS 2 2.8 20:17:13 55° E 20:17:34 57° ENE 20:21:53 10° N
RESURS DK-1 3.2 20:17:16 25° WSW 20:19:11 45° NW 20:23:02 10° NNE
Cosmos 1605 Rocket 3.9 20:17:09 39° SSW 20:19:32 79° WNW 20:25:43 10° N
Cosmos 2298 Rocket 4.0 20:20:41 46° SSW 20:22:20 85° WNW 20:27:42 10° NNE
Cosmos 1656 4.3 20:17:50 10° NNW 20:23:06 47° NE 20:25:13 31° E
Cosmos 1862 4.0 20:22:24 10° NNW 20:25:31 42° WNW 20:25:31 42° WNW
ARIANE 5 R/B 2.4 20:26:44 80° ESE 20:26:53 82° ENE 20:31:15 10° NNW
Cosmos 1818 4.2 20:27:10 10° NW 20:32:34 54° NNE 20:35:11 29° E
Spot 4 3.6 20:32:16 73° SSE 20:32:44 88° ENE 20:37:31 10° NNW
Cosmos 2369 Rocket 3.1 20:28:53 10° NW 20:33:54 35° WSW 20:34:53 32° SW
Cosmos 2173 Rocket 4.0 20:38:04 51° SE 20:39:18 61° E 20:45:19 10° NNE
ACS3 Solar Sail 4.0 20:39:53 10° ENE 20:40:42 10° ENE 20:41:29 10° E
SJ 16-02 1.4 20:37:43 10° NNW 20:41:59 64° ENE 20:42:01 64° ENE
USA 234 3.3 20:40:15 10° E 20:46:48 80° N 20:53:23 10° W
Cosmos 1190 Rocket 4.3 20:41:52 10° NNW 20:47:09 63° ENE 20:48:17 50° ESE
SAR-Lupe-2 4.4 20:49:00 45° NW 20:49:00 45° NW 20:51:35 10° NNW
Cosmos 2100 Rocket 3.9 20:47:41 54° SSE 20:49:03 72° E 20:55:13 10° NNE
Cosmos 1697 Rocket 4.0 20:44:11 10° NNW 20:49:23 35° NE 20:53:12 16° E
MetOp-A 3.9 20:49:22 61° ESE 20:50:00 69° ENE 20:55:06 10° NNW
Cosmos 2360 4.5 20:47:17 10° NNW 20:52:57 63° NE 20:54:45 42° ESE
Cosmos 1943 3.1 20:52:38 62° SSE 20:53:16 67° ESE 20:58:56 10° NE
Meteor 2-1 Rocket 4.5 20:53:51 51° SE 20:54:44 56° E 21:00:26 10° NNE
Cosmos 921 Rocket 3.9 20:53:31 10° NW 20:57:26 40° W 20:57:26 40° W
NOSS 3-1 (A) 3.9 20:57:02 10° NW 21:03:44 65° SW 21:06:11 45° SSE
CZ-2C R/B 3.0 21:03:23 47° ESE 21:04:42 60° ENE 21:10:06 10° N
Cosmos 1980 Rocket 4.0 21:01:07 10° NNW 21:06:01 28° NNE 21:10:55 10° E
BREEZE-M R/B 4.4 20:57:21 10° WSW 21:06:08 55° SSE 21:11:39 10° E
Cosmos 332 Rocket 4.3 21:06:42 10° NNW 21:11:28 53° NE 21:12:20 46° E
COSMOS 2455 2.9 21:05:54 10° NW 21:11:50 59° WSW 21:12:30 56° SSW
Cosmos 304 Rocket 4.1 21:07:31 10° NW 21:11:56 52° W 21:11:56 52° W
Cosmos 2228 4.4 21:15:35 28° ENE 21:15:35 28° ENE 21:18:47 10° NNE
Cosmos 1315 Rocket 4.5 21:15:21 24° WNW 21:15:48 24° WNW 21:18:57 10° N
SL-16 R/B 3.0 21:13:28 22° WSW 21:16:59 48° NW 21:22:30 10° NNE
Cosmos 44 3.6 21:16:10 46° WSW 21:17:42 74° NW 21:23:06 10° NE
Cosmos 2251 Rocket 3.4 21:13:27 10° NNW 21:18:47 80° WSW 21:19:17 72° S
Cosmos 968 Rocket 4.2 21:14:26 10° NNW 21:19:29 48° NE 21:21:08 36° ESE
Cosmos 676 Rocket 4.1 21:14:14 10° NNW 21:19:34 70° ENE 21:20:32 57° ESE
Cosmos 1420 Rocket 4.4 21:20:22 48° ESE 21:20:22 48° ESE 21:25:26 10° NE
Cosmos 1954 Rocket 3.8 21:16:38 10° NNW 21:21:56 90° ENE 21:22:29 73° SSE
SeaSat 1 4.4 21:22:34 16° W 21:22:34 16° W 21:25:26 10° WNW
Cosmos 1536 Rocket 4.4 21:18:34 10° NNW 21:22:19 39° W 21:22:19 39° W
Cosmos 1864 Rocket 4.4 21:23:06 56° S 21:24:34 87° E 21:30:58 10° NNE
Cosmos 2151 Rocket 3.8 21:27:43 60° WNW 21:27:44 60° WNW 21:32:07 10° N
SL-08 R/B 4.4 21:29:44 57° SSE 21:31:00 74° E 21:37:12 10° NNE
ATLAS 5 CENTAUR R/B 2.1 21:29:31 10° NW 21:32:15 46° WNW 21:32:15 46° WNW
Cosmos 1725 Rocket 3.9 21:33:54 56° SSW 21:35:25 88° W 21:41:48 10° NNE
Cosmos 371 Rocket 4.1 21:31:18 10° NW 21:35:22 38° W 21:35:22 38° W
CZ-2C R/B 3.0 21:31:26 10° NNE 21:36:27 67° ESE 21:36:52 63° SE
Cosmos 1802 Rocket 4.0 21:35:01 54° SSW 21:36:36 82° WNW 21:42:56 10° N
Cosmos 2056 Rocket 4.2 21:36:55 40° ESE 21:37:08 40° ESE 21:42:11 10° NE
Okean 2 Rocket 3.3 21:37:24 63° WNW 21:37:24 63° WNW 21:41:49 10° N
Meteor 2-3 Rocket 4.2 21:32:21 10° NNW 21:37:43 46° W 21:38:25 44° WSW
Cosmos 407 Rocket 4.5 21:33:40 10° NW 21:38:02 32° W 21:38:02 32° W
Cosmos 1782 4.0 21:40:09 33° NE 21:40:09 33° NE 21:42:28 10° NNE
Cosmos 1743 4.3 21:37:02 10° NNW 21:38:32 26° NNW 21:38:32 26° NNW
Cosmos 1626 Rocket 4.1 21:36:30 10° N 21:40:41 48° ENE 21:40:49 48° E
Cosmos 1892 Rocket 3.8 21:40:11 10° NNW 21:44:16 60° WNW 21:44:16 60° WNW
ARIANE 6 FM1 Upper Stage 3.4 21:41:08 10° NW 21:45:03 49° NNE 21:45:58 40° ENE
Cosmos 1624 Rocket 4.5 21:46:57 44° ESE 21:47:06 44° ESE 21:52:02 10° NE
ATLAS 3B R/B 3.3 21:44:14 10° NW 21:52:08 66° NNE 21:59:42 10° ESE
Okean 1 Rocket 3.5 21:53:44 50° WNW 21:53:44 50° WNW 21:57:58 10° N
ALOS 2 4.2 21:54:36 23° W 21:54:36 23° W 21:57:48 10° NW
Cosmos 1833 Rocket 3.8 21:54:11 28° ESE 21:54:41 29° ESE 21:59:26 10° NE
Cosmos 2233 Rocket 3.9 21:53:29 55° S 21:55:00 90° W 22:01:20 10° NNE
USA 281 3.5 21:54:56 23° SE 21:59:12 63° NE 22:05:42 10° NNW
USA 229 DEB 4.0 21:53:23 10° NW 22:00:35 79° NE 22:08:40 10° ESE
USA 229 4.0 21:53:26 10° NW 22:00:38 78° NE 22:08:44 10° ESE
PSLV R/B 4.3 21:57:21 10° N 22:01:20 42° WNW 22:01:30 42° WNW
Sich 1 Rocket 4.1 22:02:13 46° WNW 22:02:21 47° WNW 22:06:37 10° N
Meteor 1-27 4.2 22:04:31 60° SSW 22:05:39 88° WNW 22:11:28 10° NNE
Cosmos 1656 4.0 22:01:34 10° NW 22:06:36 45° WSW 22:06:36 45° WSW
Meteor 1-20 Rocket 4.2 22:03:50 10° NNW 22:09:19 70° ENE 22:10:42 49° SE
ATLAS 2AS CENTAUR R/B 3.6 22:08:25 29° SE 22:09:35 31° ESE 22:15:26 10° ENE
Cosmos 2151 3.1 22:06:52 10° N 22:11:02 64° ENE 22:11:02 64° ENE
Cosmos 2016 Rocket 4.3 22:10:46 43° SW 22:12:40 58° WNW 22:18:56 10° N
Cosmos 1455 Rocket 3.2 22:12:41 60° WNW 22:12:43 60° WNW 22:17:07 10° N
Landsat 5 3.4 22:09:23 10° NNE 22:13:28 82° NNW 22:13:28 82° NNW
ARGOS Delta rocket 4.2 22:09:46 10° N 22:13:59 46° WNW 22:14:19 45° W
Cosmos 1818 3.9 22:10:53 10° NW 22:15:46 49° WSW 22:15:46 49° WSW
Cosmos 2061 Rocket 3.9 22:14:37 52° SSW 22:16:13 77° WNW 22:22:27 10° N
Nadezhda 4 Rocket 4.2 22:10:56 10° N 22:17:07 65° ENE 22:19:34 37° SE
DELTA 2 DEB (DPAF) 4.2 22:13:32 10° NNE 22:16:28 56° NNE 22:16:28 56° NNE
Aureole 3 Rocket 3.0 22:17:34 82° SSW 22:17:47 89° W 22:23:21 10° NNE
Cosmos 292 Rocket 3.6 22:13:21 10° NNW 22:18:12 84° WSW 22:18:29 78° S
Cosmos 1371 Rocket 3.9 22:18:24 64° SSE 22:19:03 73° ESE 22:24:22 10° NNE
SJ 16-02 3.2 22:16:30 10° NW 22:18:30 18° WNW 22:18:30 18° WNW
CZ-4C R/B 4.1 22:16:37 10° NNE 22:18:46 39° NNE 22:18:46 39° NNE
Cosmos 1544 Rocket 3.9 22:19:57 55° ESE 22:20:08 56° E 22:24:29 10° NNE
Tsikada Rocket 4.5 22:15:07 10° NNW 22:21:07 46° W 22:22:25 40° WSW
Cosmos 1758 Rocket 3.4 22:18:12 10° NNW 22:22:20 78° WNW 22:22:20 78° WNW
Meteor 1-22 4.5 22:17:29 10° NNW 22:22:55 79° W 22:23:47 63° S
Cosmos 1805 4.3 22:21:12 10° N 22:23:57 32° ENE 22:23:57 32° ENE
ACS3 Solar Sail 2.3 22:18:50 10° NNE 22:24:38 48° E 22:26:41 35° SE
Cosmos 1603 3.9 22:23:25 45° WSW 22:25:05 66° NW 22:30:48 10° NNE
Cosmos 1741 Rocket 3.9 22:23:17 10° NNW 22:28:37 89° WSW 22:29:50 55° SSE
USA 234 3.1 22:23:21 10° ESE 22:29:55 78° SSW 22:36:30 10° WNW
Cosmos 1697 Rocket 2.6 22:28:10 10° NW 22:33:47 71° WSW 22:34:53 56° S
Cosmos 1943 4.4 22:34:22 20° W 22:37:42 37° NW 22:42:57 10° NNE
Cosmos 1452 Rocket 4.4 22:37:06 33° SE 22:38:14 37° ESE 22:43:01 10° NE
Cosmos 1513 Rocket 4.5 22:40:26 47° S 22:42:30 89° E 22:48:54 10° NNE
Cosmos 2369 4.5 22:39:36 10° NNW 22:45:11 52° NE 22:50:44 10° ESE
IDEFIX/ARIANE 42P 3.6 22:40:24 10° NNE 22:45:12 37° E 22:46:59 29° SE
CZ-2C R/B 3.7 22:44:49 30° W 22:45:15 31° W 22:50:06 10° NNW
Cosmos 2026 Rocket 4.3 22:43:42 10° N 22:49:53 66° ENE 22:53:28 27° SSE
Cosmos 1980 Rocket 2.2 22:45:04 10° NNW 22:50:49 83° NE 22:54:16 25° SE
Cosmos 2333 Rocket 4.0 22:45:53 10° NNW 22:50:57 32° NE 22:56:00 10° E
Cosmos 1825 Rocket 3.7 22:47:12 10° N 22:51:30 66° ENE 22:52:21 52° SE
Cosmos 2228 3.7 22:51:49 40° WNW 22:52:00 40° WNW 22:55:59 10° N
Cosmos 1092 Rocket 4.4 22:46:55 10° N 22:53:02 60° ENE 22:56:55 23° SSE
Cosmos 1437 Rocket 3.4 22:53:42 40° E 22:53:42 40° E 22:56:45 10° NNE
Cosmos 1602 Rocket 3.4 22:49:42 10° NNW 22:54:00 68° W 22:54:05 67° WSW
Cosmos 1076 Rocket 4.1 22:50:26 10° N 22:54:42 53° ENE 22:56:04 37° SE
Cosmos 968 Rocket 4.1 22:56:21 10° NW 23:01:01 37° WSW 23:01:01 37° WSW
Spot 1 3.7 22:57:27 10° NNE 23:01:30 85° ESE 23:01:50 75° S
SL-16 R/B 4.4 22:58:12 10° WNW 23:02:27 21° NNW 23:06:43 10° NNE
Resurs 1-4 Rocket 4.3 22:58:59 10° NE 23:02:42 19° E 23:06:24 10° SE
Okean 1-7 Rocket 3.4 23:00:08 10° NNW 23:04:32 82° W 23:05:05 67° S
Meteor 1-25 Rocket 4.3 23:02:27 10° NNW 23:08:13 62° W 23:09:53 44° SSW
Cosmos 1782 4.4 23:14:04 20° WNW 23:14:04 20° WNW 23:16:40 10° NNW
H-2A R/B 4.1 23:11:24 10° ESE 23:14:33 28° ENE 23:17:41 10° N
CZ-2C R/B 4.4 23:11:47 10° N 23:15:56 27° WNW 23:17:51 21° W
Cosmos 2360 Rocket 4.1 23:12:35 10° NNW 23:17:36 31° NE 23:22:37 10° E
ADEOS Rocket 4.1 23:10:43 10° NNE 23:17:43 50° E 23:23:11 19° SSE
Cosmos 1850 Rocket 4.5 23:13:52 10° NW 23:18:42 39° WSW 23:18:56 39° WSW
Cosmos 2056 Rocket 4.2 23:17:08 32° WSW 23:19:10 47° NW 23:24:25 10° NNE
Cosmos 2082 Rocket 3.6 23:18:10 19° SSE 23:21:05 30° ESE 23:25:58 10° NE
GP-B 3.0 23:16:46 10° N 23:21:11 89° E 23:22:13 52° S
ARIANE 6 FM1 Upper Stage 4.1 23:20:13 10° WNW 23:21:54 23° WNW 23:21:54 23° WNW
Cosmos 2322 Rocket 3.8 23:22:49 10° NNW 23:27:59 35° NE 23:33:08 10° ESE
Cosmos 1634 Rocket 4.4 23:24:32 24° SSE 23:28:17 59° E 23:34:20 10° NNE
Cosmos 1302 Rocket 4.3 23:29:11 34° S 23:31:13 57° ESE 23:36:18 10° NNE
Cosmos 1627 Rocket 4.4 23:26:25 10° NNW 23:32:37 75° W 23:36:00 29° S
USA 267 3.6 23:27:10 10° ENE 23:33:33 50° SE 23:36:26 31° SSW
Cosmos 2058 Rocket 4.0 23:33:31 24° SSE 23:35:48 43° E 23:40:01 10° NNE
MOZ.5/SAFIR/RUBIN 5/SL-8 3.8 23:33:16 25° SSE 23:36:00 82° ENE 23:40:41 10° NNW
Cosmos 2237 4.2 23:30:47 10° NW 23:36:34 85° NE 23:42:19 10° SE
Cosmos 1536 3.3 23:33:30 10° N 23:37:07 52° ENE 23:38:59 25° SE
Gbstr 26 Del rocket 3.1 23:38:00 43° SSE 23:38:00 43° SSE 23:41:13 10° E
Cosmos 1833 Rocket 2.8 23:35:50 35° SW 23:38:11 70° NW 23:43:49 10° NNE
Cosmos 1606 Rocket 3.5 23:37:08 47° SSW 23:38:21 77° WNW 23:42:49 10° N
SL-16 R/B 2.9 23:32:54 10° NNW 23:38:31 55° NE 23:44:05 10° SE
Cosmos 1933 3.9 23:39:14 37° W 23:39:35 38° WNW 23:43:10 10° N
SL-4 R/B 2.3 23:42:00 41° SSE 23:42:00 41° SSE 23:45:26 10° E
ATLAS 3B R/B 3.0 23:35:21 10° NW 23:42:58 56° SW 23:50:11 10° SSE
FENGYUN 3A 3.7 23:37:58 10° NNE 23:43:26 75° ESE 23:46:15 29° S
Cosmos 1331 Rocket 4.2 23:41:51 36° SW 23:43:58 64° WNW 23:49:13 10° NNE
USA 281 3.7 23:41:47 31° SSW 23:44:01 40° WSW 23:50:11 10° NW
Envisat 4.1 23:39:27 10° NNE 23:44:11 38° E 23:47:59 15° SSE
NOSS 3-4 (A) 4.5 23:40:13 10° NW 23:46:09 50° NNE 23:53:08 10° E
Cosmos 1867 3.9 23:44:20 33° S 23:46:36 57° SE 23:51:58 10° NE
NOSS 3-4 (C) 4.5 23:40:43 10° WNW 23:46:41 50° NNE 23:53:41 10° E
Cosmos 1766 2.8 23:45:49 10° N 23:49:02 74° ENE 23:49:49 47° SSE
CZ-4C R/B 3.3 23:47:13 18° SSE 23:49:18 25° ESE 23:53:36 10° ENE
USA 229 DEB 4.3 23:44:24 10° NW 23:51:20 43° WSW 23:58:54 10° S
USA 229 4.3 23:44:27 10° NW 23:51:24 44° WSW 23:59:00 10° S
Cosmos 2219 Rocket 4.0 23:46:52 10° NNW 23:51:55 33° NE 23:56:59 10° E
Cosmos 2098 Rocket 4.0 23:49:40 32° SW 23:51:56 51° WNW 23:57:30 10° N
CZ-2D R/B 3.3 23:47:55 10° NNE 23:52:46 37° E 23:57:19 12° SSE
Cosmos 1110 Rocket 4.4 23:50:47 31° WSW 23:53:05 54° NW 23:58:18 10° NNE
